SCP
0 0 0 0 0 0 0 0 0 0 0 0 0 0 0 0 0 0 0 0 0 0 0 0 0 0 0 0 0 0 0 0 0 0 0 0 0 0 0 0 0 0 0 0
0 0 0 0 0 0 0 0 0 0 0 0 0 0 0 0 0 0 0 0 0 0 0 0 0 0 0 0 0 0 0 0 0 0 0 0 0 0 0 0 0 0 0 0
0 0 0 0 0 0 0 0 0 0 0 0 0 0 0 0 0 0 0 0 0 0 0 0 0 0 0 0 0 0 0 0 0 0 0 0 0 0 0 0 0 0 0 0
0 0 0 0 0 0 0 0 0 0 0 0 0 0 0 0 0 0 0 0 0 0 0 0 0 0 0 0 0 0 0 0 0 0 0 0 0 0 0 0 0 0 0 0
0 0 0 0 0 0 0 0 0 0 0 0 0 0 0 0 0 0 0 0 0 0 0 0 0 0 0 0 0 0 0 0 0 0 0 0 0 0 0 0 0 0 0 0
0 0 0 0 0 0 0 0 0 0 0 0 0 0 0 0 0 0 0 0 0 0 0 0 0 0 0 0 0 0 0 0 0 0 0 0 0 0 0 0 0 0 0 0
0 0 0 0 0 0 0 0 0 0 0 0 0 0 0 0 0 0 0 0 0 0 0 0 0 0 0 0 0 0 0 0 0 0 0 0 0 0 0 0 0 0 0 0
0 0 0 0 0 0 0 0 0 0 0 0 0 0 0 0 0 0 0 0 0 0 0 0 0 0 0 0 0 0 0 0 0 0 0 0 0 0 0 0 0 0 0 0
0 0 0 0 0 0 0 0 0 0 0 0 0 0 0 0 0 0 0 0 0 0 0 0 0 0 0 0 0 0 0 0 0 0 0 0 0 0 0 0 0 0 0 0
0 0 0 0 0 0 0 0 0 0 0 0 0 0 0 0 0 0 0 0 0 0 0 0 0 0 0 0 0 0 0 0 0 0 0 0 0 0 0 0 0 0 0 0
0 0 0 0 0 0 0 0 0 0 0 0 0 0 0 0 0 0 0 0 0 0 0 0 0 0 0 0 0 0 0 0 0 0 0 0 0 0 0 0 0 0 0 0
0 0 0 0 0 0 0 0 0 0 0 0 0 0 0 0 0 0 0 0 0 0 0 0 0 0 0 0 0 0 0 0 0 0 0 0 0 0 0 0 0 0 0 0
0 0 0 0 0 0 0 0 0 0 0 0 0 0 0 0 0 0 0 0 0 0 0 0 0 0 0 0 0 0 0 0 0 0 0 0 0 0 0 0 0 0 0 0
0 0 0 0 0 0 0 0 0 0 0 0 0 0 0 0 0 0 0 0 0 0 0 0 0 0 0 0 0 0 0 0 0 0 0 0 0 0 0 0 0 0 0 0
0 0 0 0 0 0 0 0 0 0 0 0 0 0 0 0 0 0 0 0 0 0 0 0 0 0 0 0 0 0 0 0 0 0 0 0 0 0 0 0 0 0 0 0
0 0 0 0 0 0 0 0 0 0 0 0 0 0 0 0 0 0 0 0 0 0 0 0 0 0 0 0 0 0 0 0 0 0 0 0 0 0 0 0 0 0 0 0
0 0 0 0 0 0 0 0 0 0 0 0 0 0 0 0 0 0 0 0 0 0 0 0 0 0 0 0 0 0 0 0 0 0 0 0 0 0 0 0 0 0 0 0
0 0 0 0 0 0 0 0 0 0 0 0 0 0 0 0 0 0 0 0 0 0 0 0 0 0 0 0 0 0 0 0 0 0 0 0 0 0 0 0 0 0 0 0
0 0 0 0 0 0 0 0 0 0 0 0 0 0 0 0 0 0 0 0 0 0 0 0 0 0 0 0 0 0 0 0 0 0 0 0 0 0 0 0 0 0 0 0
0 0 0 0 0 0 0 0 0 0 0 0 0 0 0 0 0 0 0 0 0 0 0 0 0 0 0 0 0 0 0 0 0 0 0 0 0 0 0 0 0 0 0 0
0 0 0 0 0 0 0 0 0 0 0 0 0 0 0 0 0 0 0 0 0 0 0 0 0 0 0 0 0 0 0 0 0 0 0 0 0 0 0 0 0 0 0 0
0 0 0 0 0 0 0 0 0 0 0 0 0 0 0 0 0 0 0 0 0 0 0 0 0 0 0 0 0 0 0 0 0 0 0 0 0 0 0 0 0 0 0 0
0 0 0 0 0 0 0 0 0 0 0 0 0 0 0 0 0 0 0 0 0 0 0 0 0 0 0 0 0 0 0 0 0 0 0 0 0 0 0 0 0 0 0 0
0 0 0 0 0 0 0 0 0 0 0 0 0 0 0 0 0 0 0 0 0 0 0 0 0 0 0 0 0 0 0 0 0 0 0 0 0 0 0 0 0 0 0 0
0 0 0 0 0 0 0 0 0 0 0 0 0 0 0 0 0 0 0 0 0 0 0 0 0 0 0 0 0 0 0 0 0 0 0 0 0 0 0 0 0 0 0 0
0 0 0 0 0 0 0 0 0 0 0 0 0 0 0 0 0 0 0 0 0 0 0 0 0 0 0 0 0 0 0 0 0 0 0 0 0 0 0 0 0 0 0 0
0 0 0 0 0 0 0 0 0 0 0 0 0 0 0 0 0 0 0 0 0 0 0 0 0 0 0 0 0 0 0 0 0 0 0 0 0 0 0 0 0 0 0 0
Wind_Speed
5 4 4 5 5 6 8 9 8 8 7 7 5 4 3 2 1 1 2 2 3 3 3 4 4 4 4 4 4 4 4 4 4 3 3 3 3 3 3 2 2 2 2 2
4 3 3 5 7 8 9 8 9 9 9 5 3 2 2 1 0 0 1 2 2 3 3 4 4 3 3 4 4 4 4 4 3 3 3 3 3 3 2 2 2 2 2 2
4 2 3 6 6 7 5 5 6 9 5 2 2 2 2 1 1 1 1 1 2 2 3 3 3 4 4 4 4 4 4 3 3 3 3 3 3 3 2 2 2 2 2 2
2 1 5 1 3 1 3 3 2 3 3 3 3 2 2 2 2 2 1 1 2 2 2 3 3 3 3 3 4 4 3 3 3 3 3 3 3 2 2 2 2 2 2 2
2 3 5 2 1 1 3 3 2 4 4 3 2 1 1 3 2 1 1 1 1 2 2 3 3 3 4 3 3 3 3 2 2 3 3 3 3 2 2 2 2 1 2 2
2 3 4 2 3 3 2 3 2 2 3 2 1 3 2 3 2 1 1 1 2 2 3 3 3 4 4 3 3 2 2 2 2 2 3 3 2 2 2 2 2 1 2 2
3 4 5 3 3 1 3 3 3 1 2 2 2 3 3 2 2 1 2 2 2 3 3 3 3 4 4 3 1 1 1 1 1 1 2 2 2 1 1 1 1 2 2 2
3 4 5 2 2 1 2 3 2 2 2 2 1 1 1 1 1 1 2 2 2 3 2 2 3 4 3 2 1 1 2 2 1 1 1 1 1 1 1 1 2 2 2 2
4 4 2 1 1 2 3 3 3 3 3 1 1 1 1 1 1 1 1 2 2 3 3 3 3 2 2 1 1 1 1 1 1 1 1 1 1 2 2 2 2 2 2 2
3 4 2 2 2 3 3 3 3 3 2 1 1 1 0 0 1 1 2 2 2 3 3 3 3 2 2 1 1 1 1 1 0 0 1 1 1 2 2 2 2 2 3 3
5 4 3 3 3 3 3 3 3 3 2 1 0 0 0 1 1 1 2 2 2 2 2 2 2 2 2 2 1 1 1 0 0 1 1 1 1 2 2 3 3 3 3 3
4 2 3 3 3 3 2 2 2 2 3 2 1 1 1 1 1 1 2 2 2 2 2 2 2 2 2 2 1 1 0 0 0 1 1 1 2 2 3 4 5 6 6 6
3 3 2 3 3 2 2 2 2 2 2 2 2 1 1 1 2 2 2 2 2 2 2 2 2 2 2 1 1 0 0 1 1 1 1 2 2 2 3 3 4 6 7 8
2 1 2 2 2 3 2 2 3 3 3 3 2 2 2 2 2 2 2 2 2 2 2 1 1 1 1 1 1 1 1 1 1 1 2 2 2 3 3 3 3 3 5 7
2 2 2 1 2 2 2 2 3 3 3 3 3 3 2 2 2 1 2 2 2 2 1 1 1 1 2 1 1 1 1 1 1 2 2 2 3 3 3 4 4 4 4 5
2 1 1 1 1 1 2 2 2 2 2 2 2 2 2 2 2 2 2 1 1 1 0 0 1 2 2 1 1 1 1 2 3 2 2 2 3 3 3 4 4 4 4 4
1 0 0 0 0 0 1 0 0 0 1 1 1 1 1 2 2 2 1 1 1 1 1 1 2 2 2 1 2 2 2 2 3 3 3 3 3 3 4 4 4 4 4 5
2 2 2 2 2 1 0 1 0 0 0 1 1 1 1 1 1 1 1 1 1 1 1 2 2 2 2 2 2 2 2 2 2 3 3 3 4 4 4 4 5 5 5 6
0 0 0 1 1 1 1 0 0 0 1 0 1 0 0 0 1 1 1 1 1 1 2 2 3 2 2 2 2 2 2 3 3 3 3 5 4 4 4 4 5 5 5 5
2 1 2 2 1 1 1 0 0 0 0 0 0 0 0 1 1 1 1 1 2 2 2 3 3 2 2 3 3 2 2 3 3 3 3 4 4 4 4 5 5 5 6 6
1 2 2 1 1 1 1 1 1 0 0 0 1 0 1 1 1 1 1 2 2 2 3 4 3 3 2 3 3 2 3 3 4 4 4 4 4 5 5 5 6 6 6 6
1 1 1 1 1 1 1 1 1 1 0 0 0 0 1 1 2 2 2 2 3 4 3 2 3 4 4 4 2 3 3 4 4 4 4 5 5 5 6 6 6 6 6 7
1 1 1 1 1 1 1 1 0 0 0 0 1 1 1 2 2 2 2 2 2 4 3 3 5 7 6 3 3 3 4 4 4 5 5 5 5 6 6 7 6 7 7 7
1 1 1 1 1 1 1 1 1 1 1 1 1 1 2 2 2 2 2 4 6 6 4 5 8 8 6 3 3 4 4 4 5 5 5 5 5 6 6 6 7 7 7 8
1 1 1 1 1 0 0 1 1 1 1 1 1 2 2 2 2 3 3 4 6 6 4 5 8 8 4 3 4 4 4 5 5 5 5 5 6 6 6 7 7 7 7 8
1 1 1 0 0 0 0 0 1 1 1 1 2 2 2 2 2 3 3 3 5 6 4 4 4 5 4 4 4 5 5 6 6 6 6 6 7 7 7 7 9 8 8 8
1 1 1 1 0 0 0 0 1 1 1 1 2 2 2 2 2 3 3 3 3 4 4 4 4 4 4 4 5 5 5 5 5 6 6 6 6 7 7 9 8 8 8 8
Wind_Direction
268 275 267 267 253 225 222 233 240 247 253 276 294 301 315 325 3 105 137 143 148 148 144 139 141 144 148 151 154 156 160 166 169 167 166 165 168 167 169 178 188 195 210 227
267 265 276 287 273 244 241 244 244 260 272 296 318 321 321 316 254 210 193 170 157 151 150 149 150 151 151 153 155 159 164 168 167 165 164 167 168 165 168 176 186 196 211 225
262 302 291 274 258 223 218 228 231 244 264 317 308 312 303 291 265 260 260 198 178 170 165 161 161 158 158 155 152 159 164 167 169 170 168 169 168 169 174 183 194 207 222 235
271 279 242 281 33 212 214 245 246 270 298 294 287 313 330 308 273 276 264 213 183 168 155 151 146 146 142 142 148 152 158 164 169 170 173 171 172 180 184 193 205 217 232 246
221 240 266 287 341 295 237 275 286 257 278 304 331 327 333 344 329 283 255 204 170 156 147 140 138 138 132 137 143 149 160 167 173 174 175 177 185 194 194 202 214 229 244 255
207 234 253 333 354 325 240 262 1 274 268 297 283 267 321 19 14 14 28 93 126 127 123 126 129 132 130 135 142 158 171 172 173 180 184 188 200 208 209 214 223 238 253 263
230 241 267 343 337 268 217 317 359 286 257 246 251 301 348 10 20 32 53 84 111 119 120 125 129 132 133 132 146 159 144 141 149 167 185 191 200 211 209 214 229 243 256 270
209 225 260 25 95 207 301 345 344 317 292 276 287 345 344 357 30 64 79 89 105 111 106 101 117 131 130 127 112 116 129 134 137 151 176 182 188 203 208 210 227 244 262 279
207 227 333 103 248 325 336 320 319 315 314 296 255 286 334 4 28 67 86 95 104 110 101 86 90 115 124 102 94 108 124 130 130 143 177 200 208 211 213 221 236 253 265 277
241 260 286 294 322 338 345 333 329 324 318 286 249 254 286 44 61 67 68 85 98 106 102 86 78 82 93 90 104 116 122 122 139 183 219 229 236 234 236 236 241 252 265 274
252 285 314 296 312 326 340 353 358 360 5 354 128 141 100 108 94 83 76 71 88 101 98 84 76 75 70 73 91 109 115 134 199 230 247 256 259 261 258 255 257 258 264 273
253 259 259 291 333 341 339 346 355 8 13 23 53 94 96 96 88 88 88 86 91 93 90 81 74 65 54 53 73 95 120 191 262 264 268 269 269 278 276 272 274 270 275 281
270 311 307 297 335 12 9 4 12 25 34 32 32 59 86 86 83 84 85 90 98 103 98 88 72 50 30 27 36 25 278 278 272 273 272 273 276 278 285 285 279 279 284 289
278 310 289 303 331 359 19 36 48 53 50 50 52 58 69 74 77 79 73 67 73 88 89 85 71 24 4 353 337 321 292 286 286 279 279 277 276 278 279 282 286 286 291 294
311 304 270 344 24 35 49 65 67 54 48 45 49 56 66 79 81 64 51 61 73 80 74 64 30 342 345 331 312 301 295 295 296 292 287 283 282 281 278 276 278 286 291 296
334 16 86 98 49 57 64 68 69 48 40 39 40 41 44 58 65 56 50 66 96 88 30 334 314 325 328 315 304 292 286 297 303 295 289 287 284 282 281 279 280 281 284 292
170 214 211 254 269 15 30 28 59 37 39 41 28 37 54 65 64 46 24 5 322 287 283 281 294 310 310 301 293 298 298 298 303 297 290 285 281 281 281 281 281 284 286 288
250 248 230 209 200 195 348 21 41 37 358 355 48 75 81 78 41 357 347 343 328 313 303 300 298 301 296 298 292 295 293 294 296 294 292 286 284 280 279 278 280 283 288 292
114 145 134 139 152 148 155 246 318 13 20 77 115 110 5 333 320 319 321 320 299 298 316 318 314 313 301 298 299 280 286 292 294 290 289 292 293 287 283 281 282 284 286 287
79 86 90 84 81 106 129 94 87 68 44 146 136 99 14 339 330 314 288 276 281 293 302 302 302 299 296 289 289 274 278 283 286 286 284 282 286 289 286 284 284 284 283 283
99 95 92 86 69 60 84 123 141 151 154 165 171 230 308 325 321 302 287 295 313 305 298 300 304 297 287 283 279 272 273 275 276 276 278 279 281 283 283 283 283 283 283 283
119 113 103 97 93 60 43 66 115 137 131 61 359 339 322 314 309 296 283 284 303 309 312 302 298 295 298 301 285 277 275 274 272 272 272 274 276 279 281 283 283 283 282 282
134 132 127 124 126 94 56 51 57 115 255 282 288 288 291 298 295 292 302 309 307 307 310 297 300 307 315 311 292 286 281 276 273 272 271 272 273 275 277 279 279 280 281 282
131 117 99 93 108 108 75 20 7 350 320 302 301 299 295 299 296 283 291 303 310 312 307 303 308 313 319 307 293 288 284 280 276 275 274 274 274 274 274 275 277 278 278 280
124 117 118 124 122 104 32 11 8 360 351 340 333 320 300 287 285 298 302 300 306 314 309 308 312 317 316 297 290 284 281 276 276 278 274 274 274 273 273 273 274 276 277 277
138 143 147 140 106 74 50 302 317 330 333 331 330 322 312 304 296 294 295 300 302 307 306 303 306 308 298 290 285 282 279 282 285 282 278 277 277 276 274 274 276 274 275 275
114 111 111 92 78 64 275 281 298 308 310 312 313 314 315 313 308 306 305 304 305 304 301 298 297 295 293 290 287 284 282 281 280 279 278 277 276 275 276 276 275 275 275 274